Temp
-8 -7 -7 -7 -7 -7 -8 -9 -8 -8 -7 -7 -7 -6 -6 -6 -7 -7 -7 -7 -6 -6 -6 -6 -6 -6 -5 -5 -5 -5 -5 -5 -5 -5 -6 -6 -6 -6 -5 -5 -5 -5 -5 -5 -5 -5 -5 -6 -6
-8 -7 -7 -7 -7 -7 -8 -9 -8 -9 -8 -7 -7 -7 -6 -6 -6 -6 -6 -7 -6 -6 -6 -6 -6 -6 -6 -5 -6 -6 -6 -6 -6 -6 -6 -6 -6 -6 -6 -6 -6 -6 -6 -6 -6 -6 -6 -7 -7
-8 -8 -7 -7 -7 -7 -8 -8 -8 -9 -9 -8 -8 -7 -7 -6 -6 -5 -5 -6 -6 -6 -6 -5 -6 -6 -6 -6 -6 -6 -6 -6 -6 -6 -6 -6 -6 -6 -6 -6 -6 -6 -6 -6 -7 -7 -7 -7 -7
-8 -8 -7 -7 -7 -7 -8 -9 -8 -9 -8 -9 -8 -7 -7 -7 -6 -5 -6 -6 -6 -6 -6 -6 -6 -6 -6 -6 -6 -6 -6 -6 -6 -6 -6 -6 -6 -7 -7 -7 -7 -7 -7 -7 -7 -7 -8 -8 -8
-9 -8 -8 -7 -7 -7 -8 -9 -8 -9 -8 -9 -8 -8 -7 -7 -7 -6 -6 -6 -7 -7 -6 -6 -6 -6 -6 -6 -6 -6 -6 -6 -6 -6 -6 -6 -6 -6 -7 -7 -7 -7 -8 -8 -8 -8 -8 -8 -8
-9 -8 -8 -7 -7 -8 -8 -9 -8 -8 -8 -8 -8 -8 -7 -7 -6 -6 -6 -7 -7 -6 -7 -6 -7 -6 -6 -6 -6 -6 -6 -6 -6 -6 -6 -7 -7 -7 -8 -8 -8 -8 -8 -8 -8 -9 -9 -9 -9
-9 -8 -7 -8 -8 -8 -8 -9 -8 -8 -8 -7 -8 -7 -7 -7 -7 -6 -6 -7 -7 -7 -7 -6 -7 -6 -6 -6 -6 -6 -6 -7 -7 -7 -7 -7 -7 -8 -8 -9 -9 -9 -9 -9 -9 -9 -10 -10 -10
-9 -8 -7 -8 -8 -8 -8 -8 -8 -8 -8 -8 -7 -7 -7 -7 -7 -7 -7 -7 -7 -7 -7 -7 -7 -7 -7 -7 -7 -7 -7 -7 -7 -7 -8 -8 -8 -8 -8 -9 -9 -9 -9 -10 -10 -9 -10 -10 -10
-9 -8 -7 -8 -9 -8 -8 -8 -8 -8 -8 -7 -8 -7 -7 -7 -7 -7 -7 -7 -6 -7 -7 -7 -7 -7 -7 -7 -7 -7 -7 -7 -8 -8 -8 -8 -8 -8 -8 -9 -9 -10 -9 -9 -9 -10 -10 -10 -10
-9 -8 -7 -8 -9 -8 -8 -8 -8 -8 -7 -7 -8 -8 -7 -7 -7 -7 -7 -7 -7 -7 -7 -7 -7 -7 -7 -7 -7 -7 -7 -7 -7 -8 -8 -8 -8 -8 -9 -9 -9 -10 -10 -10 -9 -9 -10 -10 -9
-9 -8 -9 -9 -9 -9 -8 -8 -8 -8 -7 -7 -7 -7 -7 -7 -7 -7 -7 -7 -7 -7 -8 -7 -7 -7 -7 -7 -7 -8 -8 -8 -8 -8 -8 -9 -9 -9 -9 -9 -9 -9 -10 -10 -10 -10 -10 -11 -10
-10 -9 -9 -9 -9 -9 -9 -8 -9 -8 -8 -7 -6 -6 -7 -7 -7 -7 -7 -8 -8 -8 -8 -8 -8 -8 -8 -8 -7 -7 -8 -8 -8 -8 -8 -9 -9 -9 -10 -10 -10 -10 -10 -10 -10 -10 -10 -10 -10
-9 -9 -9 -9 -9 -8 -7 -8 -8 -8 -9 -8 -7 -7 -6 -6 -7 -7 -8 -8 -8 -8 -8 -8 -8 -7 -7 -8 -8 -8 -8 -8 -8 -8 -8 -9 -10 -10 -10 -10 -10 -10 -10 -10 -10 -10 -10 -10 -10
-10 -9 -9 -9 -10 -9 -9 -9 -8 -8 -9 -8 -7 -7 -7 -8 -8 -8 -8 -8 -8 -7 -7 -7 -7 -7 -7 -7 -7 -7 -8 -8 -8 -8 -9 -9 -10 -10 -10 -11 -11 -11 -11 -11 -11 -11 -11 -11 -11
-12 -11 -10 -10 -9 -9 -10 -9 -8 -10 -9 -9 -8 -8 -8 -8 -8 -8 -8 -8 -7 -7 -7 -7 -7 -7 -7 -7 -7 -7 -7 -7 -8 -8 -9 -9 -10 -10 -10 -10 -11 -11 -11 -11 -10 -11 -11 -11 -11
-13 -12 -11 -10 -10 -10 -10 -9 -10 -10 -9 -9 -10 -9 -8 -8 -8 -7 -7 -7 -7 -7 -7 -6 -7 -7 -7 -7 -8 -8 -8 -8 -8 -9 -9 -9 -10 -10 -10 -11 -11 -10 -10 -11 -11 -11 -11 -12 -12
-10 -10 -10 -11 -12 -11 -11 -10 -11 -10 -10 -9 -9 -9 -9 -9 -8 -8 -8 -8 -8 -7 -7 -7 -7 -7 -7 -8 -9 -9 -9 -9 -9 -9 -9 -9 -10 -10 -10 -10 -11 -10 -11 -11 -11 -11 -11 -11 -11
-9 -10 -11 -12 -13 -13 -11 -11 -12 -11 -10 -9 -9 -9 -8 -8 -9 -9 -9 -8 -8 -8 -8 -8 -8 -8 -9 -9 -9 -9 -9 -9 -9 -9 -10 -9 -10 -10 -10 -10 -10 -10 -10 -10 -11 -11 -11 -11 -11
-12 -12 -12 -13 -12 -11 -10 -10 -10 -9 -9 -9 -9 -9 -9 -9 -9 -9 -8 -8 -9 -9 -9 -9 -9 -9 -9 -9 -9 -9 -9 -9 -9 -10 -10 -10 -10 -9 -9 -9 -9 -9 -10 -11 -11 -11 -11 -11 -11
-13 -12 -12 -12 -12 -11 -11 -10 -10 -10 -10 -10 -9 -10 -10 -9 -10 -10 -9 -9 -9 -9 -10 -9 -10 -10 -9 -9 -9 -9 -10 -10 -10 -10 -10 -10 -10 -10 -10 -10 -10 -11 -11 -11 -11 -11 -11 -11 -11
-13 -12 -12 -12 -12 -12 -11 -10 -11 -11 -10 -10 -10 -10 -10 -10 -10 -10 -10 -10 -10 -10 -10 -10 -10 -10 -10 -10 -10 -10 -10 -10 -10 -11 -11 -11 -11 -11 -11 -11 -11 -11 -11 -11 -11 -11 -11 -11 -11
-13 -13 -13 -12 -12 -12 -11 -11 -11 -11 -11 -11 -11 -11 -10 -10 -10 -10 -10 -10 -10 -10 -10 -10 -10 -11 -11 -11 -11 -11 -11 -11 -11 -11 -11 -11 -11 -11 -11 -11 -11 -11 -11 -11 -11 -11 -11 -11 -11
-12 -12 -12 -12 -12 -12 -11 -11 -10 -10 -10 -10 -10 -10 -10 -10 -10 -10 -10 -10 -11 -11 -11 -11 -12 -12 -12 -12 -12 -12 -12 -12 -12 -12 -12 -11 -11 -11 -12 -12 -11 -11 -10 -10 -10 -11 -11 -11 -11
-13 -13 -12 -12 -12 -11 -11 -11 -10 -10 -10 -10 -11 -11 -11 -11 -11 -11 -10 -10 -10 -11 -12 -12 -11 -12 -12 -12 -13 -12 -12 -12 -12 -12 -12 -12 -12 -13 -12 -12 -11 -11 -11 -11 -10 -11 -10 -11 -10
-13 -13 -13 -13 -12 -11 -11 -11 -11 -11 -11 -11 -11 -12 -12 -11 -10 -10 -10 -10 -10 -11 -12 -12 -12 -12 -12 -13 -13 -13 -13 -12 -12 -12 -13 -13 -13 -13 -12 -12 -12 -11 -12 -12 -12 -12 -11 -11 -11
-13 -13 -13 -13 -12 -12 -12 -11 -11 -11 -11 -12 -12 -12 -12 -11 -11 -11 -11 -11 -11 -11 -11 -11 -12 -12 -13 -13 -13 -13 -13 -12 -12 -13 -13 -13 -13 -13 -12 -12 -12 -12 -11 -11 -12 -11 -11 -11 -11
-14 -14 -14 -14 -13 -13 -12 -11 -12 -12 -12 -12 -12 -12 -12 -11 -11 -11 -11 -11 -11 -11 -11 -11 -11 -12 -12 -12 -12 -13 -13 -13 -13 -13 -14 -14 -14 -13 -12 -12 -12 -12 -12 -11 -11 -10 -10 -11 -10
-14 -15 -14 -14 -13 -13 -12 -12 -12 -13 -13 -13 -12 -12 -11 -11 -11 -11 -12 -12 -11 -11 -11 -12 -12 -13 -13 -14 -14 -14 -14 -14 -14 -14 -14 -14 -14 -13 -13 -13 -12 -13 -13 -12 -12 -12 -11 -10 -10
-15 -15 -14 -15 -14 -14 -13 -13 -13 -14 -14 -14 -13 -12 -12 -12 -11 -12 -12 -12 -12 -12 -12 -13 -13 -14 -14 -14 -15 -15 -14 -14 -14 -14 -14 -14 -14 -14 -13 -14 -13 -13 -13 -13 -12 -12 -12 -11 -11
-15 -16 -16 -16 -15 -15 -14 -14 -14 -14 -14 -14 -13 -13 -13 -13 -13 -12 -13 -13 -13 -13 -13 -14 -14 -14 -14 -15 -15 -15 -14 -15 -15 -14 -15 -14 -14 -14 -14 -14 -14 -14 -13 -13 -13 -13 -13 -12 -12
Height
5870 5873 5879 5883 5888 5890 5894 5895 5895 5899 5902 5906 5908 5910 5911 5912 5914 5918 5917 5919 5921 5923 5924 5925 5927 5928 5928 5928 5927 5927 5926 5927 5927 5926 5926 5928 5928 5927 5927 5927 5927 5927 5926 5926 5925 5924 5923 5922 5921
5864 5867 5873 5877 5882 5886 5891 5892 5893 5895 5899 5903 5906 5909 5911 5913 5914 5915 5916 5918 5919 5921 5923 5924 5925 5926 5926 5926 5926 5926 5926 5926 5927 5926 5927 5928 5927 5927 5926 5926 5926 5926 5925 5925 5924 5923 5922 5921 5920
5857 5861 5867 5871 5877 5883 5889 5888 5890 5892 5896 5900 5904 5906 5909 5912 5914 5914 5916 5917 5918 5920 5921 5923 5924 5924 5925 5925 5925 5925 5925 5925 5926 5926 5926 5927 5926 5926 5925 5925 5924 5924 5924 5923 5922 5921 5920 5919 5919
5850 5855 5860 5867 5876 5881 5885 5883 5885 5889 5893 5895 5900 5903 5906 5909 5913 5914 5913 5915 5916 5917 5919 5920 5921 5922 5923 5924 5924 5924 5924 5925 5925 5925 5925 5925 5924 5923 5923 5923 5922 5922 5922 5921 5920 5919 5918 5917 5917
5842 5848 5853 5862 5870 5877 5878 5877 5881 5885 5889 5892 5896 5900 5902 5905 5908 5911 5912 5913 5914 5915 5916 5917 5918 5919 5920 5921 5922 5922 5922 5923 5923 5923 5922 5922 5921 5921 5920 5920 5919 5919 5919 5918 5917 5916 5915 5915 5914
5834 5840 5848 5856 5866 5870 5871 5872 5878 5881 5885 5888 5892 5896 5900 5902 5905 5907 5909 5910 5911 5912 5913 5915 5916 5917 5918 5918 5919 5920 5920 5920 5920 5920 5920 5919 5918 5917 5917 5917 5916 5916 5916 5915 5915 5914 5914 5913 5912
5827 5832 5842 5850 5856 5861 5865 5868 5874 5878 5881 5884 5887 5892 5897 5898 5903 5905 5906 5907 5908 5909 5910 5912 5913 5913 5914 5915 5916 5917 5917 5917 5917 5917 5916 5915 5915 5915 5914 5914 5913 5913 5912 5912 5912 5912 5912 5911 5909
5821 5825 5835 5843 5848 5854 5858 5864 5870 5875 5876 5879 5882 5886 5889 5893 5898 5901 5903 5904 5906 5906 5907 5909 5910 5910 5911 5912 5912 5913 5913 5913 5913 5912 5912 5912 5911 5910 5910 5909 5909 5909 5908 5908 5907 5907 5907 5907 5906
5813 5821 5829 5837 5842 5847 5852 5856 5862 5866 5871 5874 5876 5881 5885 5888 5891 5895 5899 5902 5903 5902 5904 5905 5906 5906 5906 5906 5907 5908 5908 5908 5907 5907 5907 5906 5905 5905 5904 5904 5904 5902 5901 5901 5900 5899 5900 5899 5900
5807 5815 5826 5831 5836 5839 5843 5849 5854 5861 5867 5869 5870 5874 5880 5884 5887 5889 5894 5898 5900 5900 5900 5901 5901 5902 5902 5902 5903 5903 5903 5902 5902 5902 5901 5900 5900 5899 5899 5898 5897 5897 5895 5895 5894 5894 5892 5893 5893
5804 5811 5820 5824 5828 5832 5836 5841 5847 5852 5859 5863 5865 5869 5874 5878 5881 5884 5889 5893 5895 5896 5895 5895 5896 5897 5897 5897 5897 5897 5898 5897 5897 5896 5896 5895 5894 5894 5893 5892 5891 5891 5890 5889 5888 5888 5886 5886 5887
5795 5804 5801 5804 5813 5822 5827 5833 5841 5847 5851 5857 5861 5864 5867 5872 5875 5879 5882 5885 5888 5890 5891 5891 5891 5892 5892 5892 5891 5891 5892 5891 5890 5890 5889 5889 5888 5888 5887 5886 5886 5885 5884 5884 5883 5883 5881 5882 5882
5787 5794 5794 5800 5806 5812 5819 5824 5830 5840 5843 5849 5854 5859 5862 5869 5872 5872 5874 5878 5881 5883 5883 5885 5885 5885 5885 5884 5884 5885 5885 5884 5883 5884 5883 5882 5881 5880 5880 5880 5879 5879 5878 5877 5876 5876 5877 5878 5876
5778 5782 5791 5794 5799 5807 5814 5818 5821 5834 5837 5842 5847 5855 5860 5861 5863 5863 5868 5871 5873 5874 5877 5877 5879 5878 5878 5879 5878 5877 5877 5877 5876 5877 5875 5875 5874 5872 5873 5872 5871 5871 5871 5871 5871 5872 5870 5871 5870
5770 5775 5778 5786 5794 5802 5805 5811 5818 5828 5831 5836 5842 5847 5849 5851 5854 5858 5860 5862 5865 5868 5868 5869 5869 5871 5871 5871 5870 5869 5870 5869 5868 5866 5865 5866 5865 5864 5864 5864 5864 5864 5864 5865 5864 5863 5862 5863 5861
5768 5770 5776 5782 5784 5793 5798 5811 5814 5818 5820 5830 5833 5836 5837 5840 5844 5848 5852 5855 5857 5860 5860 5860 5861 5862 5862 5862 5862 5861 5860 5859 5859 5858 5857 5856 5855 5856 5854 5856 5856 5856 5856 5856 5856 5854 5854 5854 5853
5759 5768 5773 5777 5780 5783 5790 5801 5804 5807 5813 5821 5825 5828 5829 5832 5835 5840 5843 5845 5846 5848 5849 5849 5851 5852 5853 5855 5855 5853 5851 5850 5849 5850 5849 5848 5849 5849 5847 5849 5848 5849 5848 5847 5847 5845 5844 5845 5844
5756 5760 5766 5772 5778 5782 5786 5792 5797 5805 5810 5812 5814 5817 5821 5827 5832 5832 5832 5834 5836 5837 5836 5836 5837 5838 5840 5841 5843 5844 5843 5841 5840 5840 5840 5840 5840 5840 5840 5841 5840 5840 5839 5838 5838 5838 5837 5836 5835
5749 5756 5762 5768 5771 5775 5780 5784 5791 5797 5801 5802 5805 5808 5815 5821 5823 5821 5823 5826 5827 5827 5827 5828 5828 5828 5827 5829 5831 5830 5831 5831 5831 5830 5831 5831 5830 5831 5832 5831 5830 5831 5829 5829 5827 5828 5828 5828 5827
5745 5750 5756 5762 5765 5769 5772 5775 5781 5787 5791 5794 5799 5803 5806 5810 5812 5814 5815 5816 5816 5819 5820 5820 5822 5819 5818 5819 5821 5821 5821 5821 5821 5821 5822 5822 5822 5822 5822 5821 5820 5819 5819 5818 5818 5818 5818 5818 5816
5740 5745 5751 5756 5759 5763 5766 5769 5774 5781 5786 5789 5792 5795 5798 5800 5802 5805 5807 5807 5809 5810 5811 5811 5812 5810 5808 5808 5810 5809 5810 5810 5810 5810 5811 5811 5811 5812 5812 5812 5810 5809 5809 5808 5808 5807 5806 5805 5805
5732 5738 5744 5749 5754 5757 5762 5765 5768 5772 5777 5782 5784 5787 5790 5792 5795 5797 5798 5799 5800 5802 5802 5803 5802 5801 5801 5800 5800 5799 5800 5799 5799 5799 5801 5801 5802 5803 5802 5801 5800 5799 5799 5798 5797 5796 5796 5794 5795
5728 5732 5737 5742 5748 5750 5755 5757 5763 5765 5769 5775 5777 5778 5782 5783 5786 5789 5790 5790 5791 5793 5794 5794 5793 5794 5794 5793 5792 5791 5790 5790 5789 5790 5790 5791 5792 5790 5788 5787 5788 5788 5786 5785 5784 5784 5784 5784 5783
5721 5727 5732 5736 5742 5745 5747 5751 5755 5759 5762 5767 5769 5770 5771 5774 5777 5779 5780 5782 5782 5782 5783 5783 5783 5784 5785 5784 5784 5782 5782 5781 5781 5781 5781 5780 5779 5776 5775 5774 5774 5773 5773 5772 5772 5771 5771 5771 5770
5714 5720 5725 5730 5734 5737 5741 5745 5748 5751 5752 5756 5761 5762 5762 5763 5765 5767 5769 5769 5770 5771 5773 5773 5773 5773 5773 5773 5773 5773 5773 5772 5770 5769 5768 5768 5766 5764 5761 5760 5761 5762 5762 5761 5759 5758 5757 5757 5756
5708 5714 5719 5722 5727 5730 5734 5736 5737 5740 5744 5744 5747 5750 5752 5753 5754 5755 5756 5756 5759 5761 5762 5762 5763 5763 5763 5763 5763 5762 5761 5760 5760 5759 5757 5756 5754 5752 5749 5748 5749 5749 5748 5747 5747 5746 5743 5741 5741
5701 5706 5711 5715 5718 5721 5725 5728 5728 5731 5735 5737 5737 5740 5741 5744 5745 5747 5748 5749 5751 5752 5752 5752 5753 5753 5752 5751 5750 5749 5749 5750 5749 5747 5746 5744 5743 5741 5739 5737 5736 5734 5732 5730 5728 5728 5729 5727 5724
5693 5700 5703 5705 5709 5712 5715 5719 5722 5725 5725 5729 5729 5731 5734 5735 5736 5737 5738 5739 5740 5741 5741 5741 5740 5740 5739 5738 5738 5738 5738 5737 5736 5735 5733 5731 5730 5729 5727 5725 5723 5721 5719 5716 5713 5709 5707 5709 5709
5686 5690 5695 5699 5702 5704 5707 5711 5715 5715 5716 5716 5718 5720 5721 5722 5723 5724 5724 5726 5728 5729 5729 5729 5729 5728 5728 5727 5727 5726 5724 5722 5721 5720 5719 5718 5716 5715 5714 5713 5711 5708 5705 5701 5698 5696 5692 5691 5691
5679 5683 5688 5691 5697 5698 5700 5704 5704 5706 5707 5707 5708 5709 5710 5711 5712 5714 5715 5715 5715 5716 5716 5716 5716 5715 5714 5714 5713 5711 5711 5708 5706 5706 5704 5701 5701 5700 5699 5696 5695 5693 5691 5687 5683 5681 5679 5677 5676
Wind_Speed
41 40 38 37 40 44 37 33 32 29 25 24 22 18 16 18 16 11 11 6 5 3 3 5 5 5 5 6 6 6 6 5 5 6 7 8 9 10 11 12 12 13 13 14 14 14 14 15 15
44 43 42 39 41 46 41 36 34 29 26 28 26 22 19 17 16 11 10 8 3 3 3 3 4 5 7 7 7 6 6 6 7 7 8 8 9 10 10 11 11 11 12 13 13 13 13 13 13
48 46 44 43 41 43 41 38 39 36 29 29 26 25 25 21 18 13 13 8 4 7 7 7 4 5 8 8 7 7 7 7 8 9 9 10 11 11 11 11 11 11 11 10 11 11 11 12 12
52 50 47 45 37 38 39 40 43 40 35 29 29 29 25 21 16 14 14 13 10 10 9 7 7 7 7 9 9 9 8 8 9 9 10 10 10 10 10 10 11 11 11 10 10 10 11 11 11
55 52 49 45 40 37 39 41 45 43 39 35 31 31 28 24 21 18 15 12 13 13 11 9 8 8 10 10 11 11 11 11 12 12 13 13 14 13 12 12 12 11 11 11 11 12 12 12 12
59 55 51 46 41 41 42 41 45 47 43 39 37 31 29 28 21 16 16 15 15 15 15 12 10 11 12 13 14 14 15 16 16 17 16 16 15 14 13 12 11 12 13 13 14 14 13 13 13
61 58 53 47 46 45 45 43 45 48 46 43 40 37 34 33 27 20 17 18 16 17 17 17 17 15 15 14 16 17 19 19 19 20 20 20 19 17 16 15 15 16 17 17 17 16 15 14 14
62 60 53 51 49 49 49 47 45 50 49 47 43 41 38 36 32 27 26 20 21 24 20 17 15 14 15 16 18 20 21 21 21 21 22 23 23 22 20 18 19 20 21 21 21 21 19 20 19
54 63 55 53 51 50 50 48 51 53 54 50 48 46 42 39 36 31 21 17 19 19 18 19 18 18 20 22 23 22 21 21 22 24 25 26 27 27 26 25 22 24 26 25 25 24 27 27 24
56 58 58 54 50 51 51 49 48 48 54 55 51 48 47 44 40 36 35 28 19 18 21 23 25 25 25 24 23 24 24 24 24 25 25 28 29 29 30 30 30 29 29 30 29 33 29 30 29
57 50 59 55 52 51 52 51 46 43 51 57 53 51 48 45 43 41 38 33 28 27 25 25 27 27 26 25 26 27 27 28 28 29 30 31 30 31 31 31 31 32 32 33 35 34 29 30 35
59 52 57 60 56 55 54 53 49 45 49 52 49 48 48 47 44 42 38 35 31 28 32 29 32 33 32 31 32 32 32 33 35 34 34 34 35 35 34 34 34 36 36 36 37 35 35 32 38
60 59 49 58 60 59 59 57 54 51 50 50 50 49 47 41 39 41 39 34 33 34 36 34 32 34 34 33 34 35 35 36 37 38 40 40 40 39 39 41 39 41 41 39 39 39 41 44 39
40 55 47 50 54 55 55 53 54 49 51 51 52 49 41 42 42 42 37 35 36 38 35 38 35 37 38 36 36 37 37 36 37 38 41 43 44 46 45 45 44 46 44 43 43 43 41 44 44
46 37 38 41 38 46 53 55 54 42 48 43 41 41 44 43 42 40 38 38 39 38 39 40 41 41 39 37 38 38 38 38 36 38 40 42 42 45 45 45 47 45 44 48 50 46 47 48 47
51 43 30 34 32 35 40 44 46 42 49 42 37 37 39 42 39 39 38 39 39 40 43 47 47 45 43 40 38 37 37 37 36 38 39 42 43 42 44 44 44 47 47 48 48 50 51 49 44
44 38 37 34 34 35 34 33 31 36 37 35 38 39 39 40 39 40 41 43 46 46 46 47 45 43 43 39 36 37 38 37 37 37 39 41 41 40 42 42 42 42 43 44 42 49 47 48 49
42 47 42 36 35 36 37 37 33 34 35 40 42 43 43 42 43 44 45 47 45 45 47 47 47 47 44 40 39 36 36 38 38 38 39 40 41 42 42 43 43 42 43 48 48 46 50 55 54
31 31 31 28 30 33 35 38 35 38 40 43 46 46 42 39 39 45 47 45 45 47 48 48 47 48 45 41 38 38 37 37 39 39 39 42 44 45 46 46 47 46 47 48 49 48 49 50 52
30 30 29 30 33 36 39 40 40 39 41 43 42 38 37 37 40 43 45 46 46 46 46 45 42 45 45 42 40 38 38 39 42 43 45 46 47 47 47 49 50 51 50 51 49 50 50 51 51
28 30 32 32 33 38 38 41 41 37 37 38 39 37 37 39 40 40 39 40 41 41 42 41 41 45 46 45 43 44 44 45 45 43 42 43 41 39 41 41 42 45 44 45 45 45 45 46 47
31 32 32 31 31 35 37 39 37 37 36 35 36 36 35 37 37 35 36 38 41 40 40 40 42 41 44 43 39 38 38 39 40 41 41 42 40 42 44 46 47 48 48 48 48 48 48 50 50
35 34 33 33 33 36 37 39 36 37 37 35 36 38 38 40 38 36 38 39 41 40 41 40 37 37 36 35 38 39 40 41 41 42 43 44 45 44 45 46 47 47 49 50 50 49 48 48 49
38 37 37 37 36 36 38 39 39 36 37 36 35 38 40 38 38 38 40 41 44 46 43 40 38 38 36 36 37 39 41 44 46 47 47 45 43 44 47 48 49 47 47 50 51 52 52 52 50
40 38 38 38 38 39 39 38 40 38 39 38 36 37 38 40 41 41 44 46 46 44 41 40 41 41 39 38 39 41 43 46 48 49 49 45 45 49 51 52 51 48 48 50 52 52 53 53 53
37 35 34 33 35 35 34 37 41 38 37 38 38 39 39 42 43 43 41 40 41 43 43 44 43 43 43 43 44 46 47 48 49 50 49 48 50 54 54 54 52 54 54 54 52 54 56 56 55
36 35 34 34 35 36 38 39 42 42 39 37 38 37 38 39 41 42 43 44 44 44 46 48 49 47 49 51 51 51 49 48 48 46 48 49 51 53 55 56 58 58 57 58 60 59 57 58 58
38 35 35 38 39 40 40 39 39 38 38 34 38 40 40 41 44 45 46 47 48 48 49 50 50 50 51 50 48 48 50 52 51 53 53 53 55 55 57 59 59 57 59 61 62 64 63 60 59
40 41 39 36 36 38 40 40 36 35 34 32 33 36 37 38 42 45 46 47 48 49 50 51 53 52 52 51 53 54 48 49 52 54 56 58 59 60 60 61 60 62 63 64 64 65 66 66 63
23 29 31 34 31 29 27 25 22 20 22 26 31 33 35 37 38 38 38 37 37 38 39 42 43 45 46 48 48 53 55 55 57 59 61 63 64 64 64 64 64 65 65 63 64 63 63 64 64
Wind_Direction
216 214 212 207 204 195 198 208 204 201 197 204 209 205 194 188 175 155 160 161 124 102 44 47 46 26 35 33 31 40 50 36 34 30 25 17 12 11 7 356 352 348 350 347 344 345 348 352 355
216 213 214 211 208 200 200 210 214 215 205 203 211 223 218 208 189 182 182 193 188 232 256 325 7 356 349 351 357 357 9 355 348 345 342 338 343 345 342 345 348 350 349 347 347 346 346 346 348
215 212 213 212 209 203 204 214 216 219 215 211 212 220 226 232 203 209 210 210 257 266 278 273 283 276 312 319 321 321 327 329 332 333 332 333 334 334 335 335 334 337 336 336 333 332 334 334 336
214 213 211 213 209 207 204 216 219 220 218 214 214 218 220 223 228 225 215 231 257 267 268 268 273 281 291 295 296 299 303 303 302 306 310 312 318 322 322 321 320 321 320 320 317 318 317 317 320
213 213 211 209 208 206 209 217 216 221 221 221 218 219 222 226 233 235 242 245 251 260 261 270 277 281 287 288 290 294 293 297 301 304 304 305 308 308 303 299 296 295 295 296 300 304 303 305 310
213 214 212 206 205 208 212 219 215 221 221 226 224 222 224 230 232 230 239 245 244 246 259 260 272 276 276 281 288 295 300 301 298 296 296 296 294 293 292 288 283 283 284 286 289 296 301 305 308
211 212 212 206 205 208 214 218 218 219 226 229 233 231 228 233 232 238 246 245 244 256 258 258 273 269 277 281 286 289 288 289 290 291 289 288 287 285 282 280 283 282 282 283 284 287 292 295 297
215 213 211 208 208 210 214 218 220 218 226 231 234 236 235 234 237 242 247 253 266 254 255 268 260 265 278 282 284 283 285 285 282 280 280 282 280 277 275 272 277 283 284 284 283 281 274 278 279
220 215 212 212 209 214 217 221 218 221 220 227 231 235 238 240 243 246 232 263 271 246 244 248 263 270 273 274 275 277 281 284 283 282 281 277 275 275 275 272 267 266 267 268 267 268 275 275 267
221 219 215 213 212 213 219 221 223 228 223 226 230 235 238 240 243 245 245 253 264 239 244 258 269 275 274 272 273 276 277 277 275 274 274 276 276 273 273 269 263 264 268 273 271 278 265 277 280
225 221 218 217 212 214 219 222 220 223 227 225 230 234 239 242 245 249 251 254 251 255 257 270 274 274 270 271 272 271 273 273 269 268 270 271 268 269 268 270 268 270 270 270 271 279 278 272 273
225 215 218 210 208 208 216 222 222 221 227 232 232 236 239 242 246 252 254 258 258 252 259 262 265 266 266 268 267 267 267 267 266 266 265 266 266 264 262 264 265 266 264 268 272 278 273 283 280
216 222 222 216 213 209 214 220 223 220 224 230 234 236 240 247 253 255 257 258 256 254 255 256 265 270 269 267 268 269 268 266 266 267 265 263 260 259 261 265 267 267 266 267 268 271 275 282 274
209 208 214 215 211 211 215 219 225 218 221 230 235 236 242 247 247 248 253 253 251 250 252 249 265 268 269 269 268 268 268 269 271 270 267 264 261 260 262 263 266 266 264 267 270 272 273 275 277
229 227 217 216 207 208 214 219 228 225 227 227 235 240 238 240 241 242 245 248 251 254 261 263 266 267 269 269 269 268 268 266 265 264 265 266 263 262 263 263 264 265 270 271 270 267 271 276 271
237 248 242 217 223 215 214 211 221 230 235 225 231 237 240 240 242 245 251 258 262 263 264 264 268 272 270 267 268 271 269 267 266 264 264 262 262 266 263 266 266 267 269 269 268 269 274 273 271
232 247 242 232 233 236 245 226 230 231 236 237 242 247 251 257 263 265 264 265 266 267 270 272 272 270 269 270 267 268 268 266 264 266 266 264 265 259 272 268 266 270 268 264 269 270 263 269 274
229 231 231 235 238 240 242 244 239 241 243 244 244 245 247 251 254 260 263 263 268 270 270 273 276 278 281 280 279 270 263 264 265 264 264 267 269 270 270 272 272 272 269 266 270 270 268 269 274
226 228 230 226 231 233 237 239 235 235 237 240 243 246 249 251 253 255 258 263 265 268 272 277 281 283 282 280 278 274 271 267 265 265 266 266 267 269 271 273 275 274 272 270 269 272 271 272 274
219 220 222 217 222 226 228 233 234 235 235 239 245 250 253 251 250 254 260 264 267 271 273 276 277 276 276 275 275 272 271 271 270 268 268 269 269 270 270 270 272 274 275 276 276 275 274 273 274
216 216 215 216 221 226 230 235 239 240 243 246 250 251 252 254 256 258 263 266 268 269 271 272 273 272 275 277 277 275 273 271 267 263 263 265 268 270 271 274 275 275 276 276 277 277 276 274 274
226 226 225 224 227 234 234 241 243 245 244 247 252 254 255 255 255 256 257 259 260 260 263 269 268 266 265 267 268 268 268 265 265 263 264 265 268 270 270 270 270 271 273 274 275 275 276 276 275
226 229 231 231 231 236 239 244 242 246 248 247 248 252 250 250 250 247 248 251 257 262 260 258 254 254 253 259 261 260 260 261 260 262 264 269 271 272 271 270 273 276 276 277 278 279 281 278 276
226 228 230 231 233 237 240 245 246 246 246 245 244 247 250 248 247 244 245 250 255 254 253 254 255 254 257 259 262 259 256 259 261 264 268 270 269 269 270 274 275 275 277 278 279 280 280 279 278
226 228 232 232 231 233 235 239 245 242 243 245 243 246 251 254 252 249 249 251 249 247 251 257 259 262 261 260 261 263 263 263 264 266 265 266 268 269 272 273 277 282 281 283 280 280 280 279 278
228 229 234 235 234 236 238 236 242 245 247 252 255 253 252 254 257 258 257 255 252 253 253 254 256 258 261 261 262 263 263 264 266 266 264 265 267 270 273 275 278 281 284 285 281 280 282 282 281
228 229 231 236 239 240 242 243 248 252 251 253 257 257 254 254 257 259 260 260 260 259 259 259 259 260 261 261 259 257 260 269 270 268 266 264 267 268 270 276 281 286 288 288 285 280 279 280 281
232 233 235 236 238 241 244 244 248 253 259 259 256 255 256 257 258 258 258 260 261 261 261 261 264 264 261 261 260 262 265 268 265 265 265 266 267 269 273 280 285 286 289 289 287 288 286 283 282
236 237 236 240 243 247 251 258 259 257 257 259 258 260 259 256 255 256 259 261 261 259 258 260 260 260 259 259 262 265 259 258 259 262 267 269 270 272 277 280 282 286 289 287 286 287 287 286 286
216 226 232 237 245 252 253 252 256 251 252 254 254 255 255 258 260 261 261 261 259 256 256 256 255 254 256 257 259 260 263 262 262 266 268 268 272 275 280 281 285 284 283 283 283 282 283 284 284